[[{"header":{"parameterUnit":"m.s-1","parameterCategory":1,"la1":30.2991,"la2":30.254,"lo1":-89.0895,"lo2":-89.0444,"dy":0.0017,"dx":0.0017,"nx":28,"ny":28,"refTime":"2024-05-16T21:00:00:Z","depth":0,"parameterNumber":2,"parameterNumberName":"U-component_of_WINDS"},"data":[0,0,0,0,0,0,0,0,0,0,0,0,0,0,0,0,0,0,0,0,0,0,0,0,0,0,0,0,0,0,0,0,0,0,0,0,0,0,0,0,0,0,0,0,0,0,0,0,0,0,0,0,0,0,0,0,0,0,-3.5624,-3.5623,0,-3.5579,-3.5579,-3.5578,-3.5467,-3.5465,-3.5463,-3.546,-3.5419,-3.542,-3.5421,0,0,0,0,0,0,0,0,0,0,0,0,0,-3.5616,-3.5617,-3.5624,-3.5623,-3.5623,-3.558,-3.5579,-3.5578,-3.5468,-3.5465,-3.5462,-3.5459,-3.5419,-3.542,-3.5421,0,0,0,0,0,0,0,0,0,0,0,0,0,-3.5601,-3.5617,-3.5624,-3.5562,-3.5556,-3.558,-3.5579,-3.5578,-3.5468,-3.5465,-3.5461,-3.5458,-3.5418,-3.542,-3.5422,-3.5503,0,0,-3.5427,-3.5427,0,0,0,0,0,0,0,0,-3.5602,-3.5601,-3.5572,-3.5566,-3.556,-3.5525,-3.5561,-3.5553,-3.5469,-3.5502,-3.546,-3.5456,-3.5458,-3.5456,-3.5455,-3.5501,-3.5499,-3.5427,-3.5428,-3.5428,-3.5429,0,0,0,0,0,0,0,-3.5603,-3.5603,-3.5606,-3.5571,-3.5564,-3.5538,-3.5532,-3.5559,-3.55,-3.5499,-3.5491,-3.5487,-3.5454,-3.5454,-3.5454,-3.5498,-3.5427,-3.5428,-3.5429,-3.543,-3.5608,-3.5612,0,0,0,0,0,0,-3.5612,-3.5604,-3.5608,-3.5605,-3.5572,-3.5541,-3.5534,-3.554,-3.55,-3.549,-3.549,-3.5482,-3.5453,-3.5452,-3.5452,-3.5543,-3.5428,-3.543,-3.5431,-3.5604,-3.5609,-3.5613,0,0,0,0,0,0,-3.5613,-3.5614,-3.5609,-3.5602,-3.56,-3.5545,-3.5552,-3.5541,-3.5541,-3.5493,-3.5482,-3.5501,-3.545,-3.5449,-3.549,-3.554,-3.5431,-3.5432,-3.56,-3.5606,-3.5611,-3.5728,0,0,0,0,0,0,-3.5613,-3.5615,-3.5644,-3.5604,-3.56,-3.5648,-3.5555,-3.5543,-3.5544,-3.5533,-3.55,-3.5491,-3.5447,-3.5489,-3.5492,-3.5541,-3.5434,-3.5595,-3.5603,-3.5609,-3.5719,-3.5737,-3.5752,0,0,0,0,0,-3.5613,-3.5679,-3.5646,-3.5647,-3.5635,-3.5651,-3.5649,-3.5596,-3.5548,-3.5578,-3.5547,-3.5492,-3.5535,-3.5494,-3.5497,-3.5547,-3.5592,-3.56,-3.5609,-3.5712,-3.5733,-3.5751,0,0,0,0,0,0,-3.5728,-3.5673,-3.5635,-3.569,-3.5676,-3.5632,-3.5667,-3.562,-3.5621,-3.561,-3.5546,-3.554,-3.559,-3.5572,-3.5528,-3.5623,-3.5554,-3.5564,-3.5632,-3.5652,-3.5668,-3.5671,-3.5435,0,0,0,0,0,-3.5759,-3.5775,-3.5727,-3.578,-3.5775,-3.5723,-3.5728,-3.5688,-3.5671,-3.5665,-3.5637,-3.5624,-3.5634,-3.5642,-3.5649,-3.5717,-3.5708,-3.5753,-3.5769,-3.5783,-3.5791,-3.5826,-3.5845,-3.5641,-3.5641,-3.564,0,0,-3.5824,-3.5796,-3.5811,-3.5802,-3.5786,-3.5805,-3.5718,-3.5742,-3.5756,-3.5669,-3.5705,-3.5685,-3.5666,-3.5721,-3.5744,-3.5708,-3.5846,-3.5793,-3.5805,-3.5806,-3.5837,-3.5856,-3.5873,-3.5646,-3.5645,-3.5644,0,0,-3.5953,-3.5933,-3.5975,-3.5961,-3.5938,-3.5904,-3.5914,-3.5878,-3.586,-3.5896,-3.5831,-3.5848,-3.5867,-3.5856,-3.5853,-3.5979,-3.5929,-3.5984,-3.6068,-3.6102,-3.6118,-3.6132,-3.6177,-3.6194,-3.5993,-3.5993,-3.5993,0,-3.6037,-3.6061,-3.6003,-3.6031,-3.6029,-3.5951,-3.5993,-3.5983,-3.5965,-3.5966,-3.5927,-3.5949,-3.5931,-3.5982,-3.6013,-3.6013,-3.6024,-3.5986,-3.6121,-3.6134,-3.6146,-3.6188,-3.6205,-3.5999,-3.5999,-3.5998,-3.5997,0,-3.6166,-3.6185,-3.6221,-3.6204,-3.6207,-3.6242,-3.619,-3.6201,-3.6162,-3.6132,-3.6169,-3.6145,-3.6146,-3.6155,-3.6118,-3.6202,-3.618,-3.6132,-3.6061,-3.6173,-3.6211,-3.6227,-3.6009,-3.6007,-3.6005,-3.6003,0,0,-3.6364,-3.6314,-3.6328,-3.632,-3.6289,-3.6303,-3.6336,-3.6335,-3.6345,-3.6336,-3.6362,-3.638,-3.6335,-3.6332,-3.6293,-3.6324,-3.6425,-3.6271,-3.627,-3.63,-3.6516,-3.6551,-3.6571,-3.6392,-3.6395,-3.6397,-3.6517,0,-3.6484,-3.6534,-3.6483,-3.6545,-3.6561,-3.6488,-3.6516,-3.6502,-3.6475,-3.6487,-3.6458,-3.6471,-3.6411,-3.6409,-3.6436,-3.6407,-3.6467,-3.6398,-3.6416,-3.6417,-3.6421,-3.6591,-3.6628,-3.6742,-3.6531,-3.6534,-3.6536,0,-3.663,-3.6626,-3.6689,-3.6655,-3.666,-3.6686,-3.6682,-3.6693,-3.6676,-3.6655,-3.6652,-3.6604,-3.6635,-3.6568,-3.6609,-3.6563,-3.6568,-3.6556,-3.6559,-3.6557,-3.6482,-3.6593,-3.6777,-3.6794,-3.6559,-3.6557,-3.6555,0,-3.6767,-3.6778,-3.6817,-3.6812,-3.6773,-3.6793,-3.6779,-3.6757,-3.6761,-3.6758,-3.6759,-3.6761,-3.6761,-3.6764,-3.6719,-3.6674,-3.6767,-3.6695,-3.675,-3.6752,-3.6772,-3.6771,-3.6959,-3.6777,-3.6777,-3.6777,-3.6776,0,-3.6906,-3.6948,-3.6878,-3.6902,-3.6946,-3.6888,-3.6934,-3.6912,-3.6894,-3.6913,-3.6851,-3.6871,-3.681,-3.6824,-3.6789,-3.6829,-3.683,-3.6814,-3.6804,-3.6819,-3.6821,-3.6821,-3.6811,-3.6781,-3.678,-3.6779,-3.6779,0,-3.7066,-3.7021,-3.7058,-3.7019,-3.701,-3.7045,-3.7011,-3.7032,-3.7002,-3.7027,-3.703,-3.6983,-3.6996,-3.6951,-3.6958,-3.6934,-3.6993,-3.697,-3.6998,-3.6991,-3.7048,-3.7043,-3.7241,-3.7264,-3.7069,-3.7071,-3.7073,0,-3.7157,-3.7187,-3.715,-3.7158,-3.7146,-3.716,-3.7162,-3.7107,-3.7113,-3.7096,-3.7119,-3.7127,-3.713,-3.7155,-3.7122,-3.7126,-3.7103,-3.7172,-3.7103,-3.7117,-3.7103,-3.7102,-3.7104,-3.7186,-3.7189,-3.7191,-3.7192,0,-3.7323,-3.7299,-3.7304,-3.7303,-3.7307,-3.7303,-3.7295,-3.7306,-3.7247,-3.7257,-3.7268,-3.7271,-3.7277,-3.7285,-3.7283,-3.7269,-3.7222,-3.7214,-3.7227,-3.7242,-3.7256,-3.7249,-3.7036,-3.721,-3.7208,-3.7207,-3.7206,-3.7205,-3.745,-3.7473,-3.7451,-3.746,-3.7448,-3.7442,-3.746,-3.7431,-3.744,-3.7439,-3.7407,-3.7426,-3.7408,-3.74,-3.7391,-3.7406,-3.7374,-3.7393,-3.7397,-3.7402,-3.7412,-3.7255,-3.7405,-3.7405,-3.7404,-3.7404,-3.7403,0,-3.7613,-3.7595,-3.7603,-3.7593,-3.76,-3.7554,-3.7543,-3.7552,-3.7569,-3.7556,-3.756,-3.7574,-3.7583,-3.7551,-3.7555,-3.7573,-3.7551,-3.7576,-3.7574,-3.7571,-3.744,-3.7428,-3.7593,-3.7593,-3.7593,-3.7593,-3.7593,-3.7593,-3.7698,-3.7734,-3.7708,-3.7739,-3.7721,-3.7737,-3.7735,-3.773,-3.7719,-3.7737,-3.7743,-3.7722,-3.7702,-3.7704,-3.7711,-3.7701,-3.7705,-3.7738,-3.7721,-3.7599,-3.758,-3.7563,-3.7551,-3.7739,-3.7739,-3.785,-3.7851,-3.7852]},{"header":{"parameterUnit":"m.s-1","parameterCategory":1,"la1":30.2991,"la2":30.254,"lo1":-89.0895,"lo2":-89.0444,"dy":0.0017,"dx":0.0017,"nx":28,"ny":28,"refTime":"2024-05-16T21:00:00:Z","depth":0,"parameterNumber":3,"parameterNumberName":"V-component_of_WINDS"},"data":[0,0,0,0,0,0,0,0,0,0,0,0,0,0,0,0,0,0,0,0,0,0,0,0,0,0,0,0,0,0,0,0,0,0,0,0,0,0,0,0,0,0,0,0,0,0,0,0,0,0,0,0,0,0,0,0,0,0,3.6583,3.6584,0,3.6674,3.6675,3.6676,3.6633,3.6631,3.6629,3.6626,3.6719,3.6723,3.6728,0,0,0,0,0,0,0,0,0,0,0,0,0,3.6372,3.6376,3.6583,3.6584,3.6585,3.6674,3.6675,3.6676,3.6634,3.6631,3.6628,3.6625,3.6717,3.6722,3.6728,0,0,0,0,0,0,0,0,0,0,0,0,0,3.6463,3.6378,3.6583,3.6575,3.6575,3.6673,3.6675,3.6677,3.6634,3.6631,3.6627,3.6624,3.6715,3.6722,3.6729,3.684,0,0,3.675,3.6753,0,0,0,0,0,0,0,0,3.6458,3.6471,3.6575,3.6575,3.6576,3.6639,3.6634,3.6731,3.6635,3.6612,3.6626,3.6622,3.6695,3.6703,3.6728,3.6845,3.6849,3.675,3.6755,3.6758,3.676,0,0,0,0,0,0,0,3.6452,3.6467,3.6619,3.6576,3.6577,3.6566,3.6576,3.6653,3.6671,3.6613,3.661,3.6622,3.6694,3.6721,3.673,3.685,3.675,3.6756,3.6761,3.6763,3.7064,3.7067,0,0,0,0,0,0,3.6446,3.6462,3.6616,3.6622,3.6507,3.6573,3.6583,3.6622,3.667,3.6675,3.6625,3.662,3.6711,3.6722,3.6733,3.6867,3.6758,3.6764,3.6768,3.706,3.7065,3.7069,0,0,0,0,0,0,3.6442,3.646,3.6612,3.6541,3.656,3.658,3.6624,3.6626,3.6652,3.6679,3.6682,3.6649,3.6709,3.6723,3.6814,3.6869,3.6767,3.6773,3.7055,3.7061,3.7067,3.7136,0,0,0,0,0,0,3.6436,3.6459,3.6501,3.6542,3.6564,3.6693,3.6628,3.663,3.6664,3.6658,3.6702,3.6706,3.6707,3.6804,3.6821,3.6877,3.6779,3.7051,3.7058,3.7065,3.7128,3.7143,3.7155,0,0,0,0,0,3.6428,3.6517,3.6504,3.6523,3.6617,3.6696,3.6708,3.6707,3.6669,3.6712,3.6729,3.6705,3.6861,3.6814,3.6832,3.6891,3.7047,3.7056,3.7064,3.7122,3.714,3.7155,0,0,0,0,0,0,3.6481,3.6522,3.6508,3.6612,3.6651,3.6688,3.6742,3.6726,3.6776,3.6768,3.6765,3.6776,3.687,3.689,3.6837,3.7002,3.6948,3.6961,3.6986,3.7003,3.7016,3.7009,3.6784,0,0,0,0,0,3.6505,3.6566,3.6598,3.6687,3.6707,3.6722,3.6756,3.6752,3.6792,3.6808,3.6832,3.6871,3.6929,3.6967,3.7022,3.7131,3.714,3.7181,3.7195,3.7206,3.7216,3.7276,3.7295,3.7097,3.7097,3.7097,0,0,3.6555,3.6585,3.6623,3.6699,3.6728,3.6791,3.6736,3.6804,3.685,3.6818,3.6906,3.6925,3.6969,3.707,3.7115,3.7089,3.7273,3.7217,3.7225,3.723,3.7287,3.7306,3.7322,3.7103,3.7102,3.7101,0,0,3.6678,3.6707,3.6784,3.6815,3.686,3.687,3.6889,3.6929,3.694,3.7029,3.7006,3.7061,3.7161,3.7193,3.7222,3.7359,3.7338,3.7376,3.7447,3.7505,3.752,3.7534,3.7583,3.76,3.7387,3.7388,3.7388,0,3.6734,3.6827,3.6826,3.6896,3.693,3.6905,3.6983,3.7013,3.7074,3.7098,3.7068,3.7193,3.7221,3.7329,3.7362,3.7387,3.7408,3.7371,3.7518,3.7532,3.7545,3.7591,3.761,3.7392,3.7391,3.7391,3.739,0,3.6894,3.6959,3.7017,3.7077,3.7117,3.7191,3.7201,3.7242,3.7235,3.7248,3.7338,3.7371,3.7432,3.7457,3.7451,3.7565,3.7548,3.7518,3.7463,3.7568,3.7612,3.763,3.7398,3.7397,3.7395,3.7394,0,0,3.7052,3.7111,3.7132,3.7159,3.7208,3.7258,3.7332,3.7392,3.7427,3.747,3.7532,3.7617,3.7591,3.7624,3.7621,3.7673,3.7779,3.7637,3.7638,3.7662,3.7907,3.7929,3.7949,3.7766,3.7769,3.7772,3.7903,0,3.7178,3.7306,3.7307,3.7425,3.7486,3.7463,3.7527,3.7564,3.7578,3.7631,3.7646,3.7707,3.7667,3.7688,3.7737,3.7755,3.7828,3.7746,3.7823,3.7825,3.7812,3.7972,3.7995,3.8117,3.792,3.7923,3.7925,0,3.7342,3.7391,3.7515,3.7556,3.7581,3.7639,3.7694,3.7745,3.7787,3.7794,3.7832,3.7822,3.7897,3.784,3.7944,3.7888,3.7919,3.7933,3.7938,3.7945,3.7881,3.7983,3.8156,3.8174,3.7952,3.795,3.7948,0,3.7444,3.7541,3.7628,3.7652,3.7702,3.7743,3.7766,3.7804,3.784,3.7889,3.7912,3.7969,3.8,3.8044,3.805,3.8009,3.8154,3.8098,3.8161,3.8161,3.8192,3.819,3.8373,3.8214,3.8213,3.8213,3.8213,0,3.7585,3.7661,3.7675,3.7729,3.7814,3.7815,3.79,3.7919,3.7954,3.8011,3.7994,3.8048,3.8052,3.8108,3.8113,3.8198,3.8212,3.8219,3.8219,3.822,3.822,3.8241,3.8232,3.8218,3.8217,3.8216,3.8215,0,3.7713,3.7725,3.7819,3.7858,3.787,3.7932,3.7966,3.8017,3.803,3.8102,3.8119,3.8139,3.8204,3.8214,3.8289,3.8293,3.8394,3.8386,3.838,3.8379,3.8442,3.8436,3.8644,3.8672,3.8495,3.8496,3.8498,0,3.7802,3.786,3.7907,3.7944,3.7969,3.8029,3.8066,3.8069,3.8108,3.8161,3.8206,3.8269,3.8319,3.8424,3.8445,3.8503,3.8496,3.8565,3.8504,3.8504,3.8497,3.8493,3.8499,3.8576,3.8578,3.858,3.8581,0,3.7957,3.7961,3.8015,3.8072,3.8117,3.8162,3.8204,3.8236,3.8245,3.829,3.8356,3.8395,3.8473,3.8535,3.8593,3.8616,3.8601,3.86,3.8618,3.8619,3.8614,3.8617,3.8412,3.8595,3.8594,3.8593,3.8592,3.8591,3.8069,3.812,3.8161,3.8222,3.8254,3.8295,3.8345,3.8364,3.8419,3.8483,3.8482,3.8554,3.8595,3.8671,3.8698,3.8755,3.8733,3.8758,3.8765,3.8771,3.8777,3.8605,3.8766,3.8765,3.8765,3.8765,3.8764,0,3.8224,3.8249,3.8305,3.8365,3.8414,3.8395,3.8441,3.8483,3.8547,3.8587,3.8637,3.8713,3.8774,3.8801,3.8861,3.8901,3.8896,3.8917,3.8914,3.892,3.8794,3.8772,3.8921,3.8921,3.8921,3.8921,3.8921,3.892,3.831,3.8396,3.8404,3.8506,3.8531,3.8602,3.863,3.8667,3.8699,3.8785,3.8836,3.8853,3.8887,3.895,3.9005,3.9012,3.9035,3.9059,3.9062,3.8944,3.8928,3.8913,3.8893,3.9064,3.9064,3.9183,3.9184,3.9185]}]]